Weather History for KLNL - September, 2013

Change the Weather History Date:

Saturday, September 28, 2013

  Actual Average (KEGV) Record (KEGV)
Temperature  
Mean Temperature 62 °F -  
Max Temperature 74 °F 57 °F 79 °F (2014)
Min Temperature 50 °F 39 °F 30 °F (2004)
Degree Days  
Heating Degree Days 3    
Growing Degree Days 12 (Base 50)    
Moisture  
Dew Point 51 °F    
Average Humidity 70    
Maximum Humidity 94    
Minimum Humidity 52    
Precipitation  
Precipitation 0.26 in - - ()
Sea Level Pressure  
Sea Level Pressure 29.88 in    
Wind  
Wind Speed 10 mph (SSW)    
Max Wind Speed 21 mph    
Max Gust Speed 32 mph    
Visibility 10 miles    
Events Rain    
Averages and records for this station are not official NWS values.
T = Trace of Precipitation, MM = Missing Value Source: NWS Daily Summary

Daily Weather History Graph

Daily Weather History Graph

Search for Another Location

Airport or City:

Trip Planner

Search our weather history database for the weather conditions in past years. The results will help you decide how hot, cold, wet, or windy it might be!

Date:

Astronomy

Sep. 28, 2013 Rise Set
Actual Time 6:51 AM CDT 6:42 PM CDT
Civil Twilight 6:21 AM CDT 7:11 PM CDT
Nautical Twilight 5:47 AM CDT 7:46 PM CDT
Astronomical Twilight 5:11 AM CDT 8:22 PM CDT
Moon 12:22 AM CDT (9/28) 3:16 PM CDT (9/28)
Length of Visible Light 12h 50m
Length of Day
11h 50m
Waning Crescent, 36% of the Moon is Illuminated
Sep 28
Waning Crescent
Oct 4
New
Oct 11
First Quarter
Oct 18
Full
Oct 26
Last Quarter

Hourly Weather History & Observations

Time (CDT) Temp. Dew Point Humidity Pressure Visibility Wind Dir Wind Speed Gust Speed Precip Events Conditions
12:15 AM 61.5 °F 50.0 °F 66% 30.03 in 10.0 mi South 6.9 mph - N/A   Clear
12:35 AM 61.2 °F 50.0 °F 67% 30.03 in 10.0 mi South 6.9 mph - N/A   Clear
12:55 AM 61.2 °F 49.3 °F 65% 30.02 in 10.0 mi South 9.2 mph - N/A   Clear
1:15 AM 60.8 °F 48.9 °F 65% 30.02 in 10.0 mi South 6.9 mph - N/A   Clear
1:35 AM 60.8 °F 48.7 °F 64% 30.02 in 10.0 mi South 8.1 mph - N/A   Clear
1:55 AM 60.3 °F 48.4 °F 65% 30.02 in 10.0 mi South 6.9 mph - N/A   Clear
2:15 AM 60.4 °F 48.0 °F 64% 30.02 in 10.0 mi South 9.2 mph - N/A   Clear
2:35 AM 60.3 °F 46.9 °F 61% 30.01 in 10.0 mi South 10.4 mph - N/A   Clear
2:55 AM 59.9 °F 45.7 °F 59% 30.01 in 10.0 mi South 9.2 mph 16.1 mph N/A   Clear
3:15 AM 59.9 °F 45.0 °F 58% 30.01 in 10.0 mi South 10.4 mph - N/A   Clear
3:35 AM 59.5 °F 44.8 °F 58% 30.00 in 10.0 mi South 10.4 mph - N/A   Clear
3:55 AM 59.4 °F 44.6 °F 58% 30.00 in 10.0 mi South 9.2 mph 16.1 mph N/A   Clear
4:15 AM 59.4 °F 44.6 °F 58% 29.99 in 10.0 mi South 9.2 mph - N/A   Clear
4:35 AM 59.0 °F 44.8 °F 59% 29.99 in 10.0 mi South 9.2 mph - N/A   Clear
4:55 AM 58.1 °F 45.1 °F 62% 29.99 in 10.0 mi South 8.1 mph - N/A   Clear
5:15 AM 58.1 °F 45.5 °F 63% 29.99 in 10.0 mi South 6.9 mph - N/A   Clear
5:35 AM 57.7 °F 45.7 °F 64% 29.99 in 10.0 mi South 9.2 mph - N/A   Clear
5:55 AM 57.4 °F 46.0 °F 66% 29.98 in 10.0 mi South 8.1 mph - N/A   Clear
6:15 AM 57.0 °F 46.6 °F 68% 29.98 in 10.0 mi South 8.1 mph - N/A   Clear
6:35 AM 56.7 °F 46.9 °F 70% 29.97 in 10.0 mi South 8.1 mph - N/A   Clear
6:55 AM 56.3 °F 47.3 °F 72% 29.97 in 10.0 mi South 8.1 mph - N/A   Clear
7:15 AM 56.7 °F 47.3 °F 71% 29.96 in 10.0 mi SSE 8.1 mph - N/A   Clear
7:35 AM 57.2 °F 47.5 °F 70% 29.96 in 10.0 mi South 9.2 mph 16.1 mph N/A   Clear
7:55 AM 58.1 °F 48.2 °F 70% 29.96 in 10.0 mi South 9.2 mph 16.1 mph N/A   Clear
8:15 AM 59.2 °F 48.6 °F 68% 29.95 in 10.0 mi South 11.5 mph 18.4 mph N/A   Clear
8:35 AM 60.8 °F 49.3 °F 66% 29.94 in 10.0 mi South 10.4 mph 19.6 mph N/A   Clear
8:55 AM 61.7 °F 50.0 °F 65% 29.94 in 10.0 mi South 10.4 mph 18.4 mph N/A   Clear
9:15 AM 63.5 °F 50.5 °F 63% 29.94 in 10.0 mi South 8.1 mph 18.4 mph N/A   Clear
9:35 AM 63.9 °F 51.1 °F 63% 29.93 in 10.0 mi South 12.7 mph 20.7 mph N/A   Clear
9:55 AM 65.1 °F 52.0 °F 62% 29.92 in 10.0 mi South 12.7 mph 20.7 mph N/A   Clear
10:15 AM 66.9 °F 52.7 °F 60% 29.91 in 10.0 mi SSE 11.5 mph 16.1 mph N/A   Clear
10:35 AM 68.0 °F 53.1 °F 59% 29.89 in 10.0 mi SSE 17.3 mph 24.2 mph N/A   Clear
10:55 AM 69.1 °F 53.4 °F 57% 29.87 in 10.0 mi South 12.7 mph 20.7 mph N/A   Clear
11:15 AM 70.7 °F 53.4 °F 54% 29.86 in 10.0 mi SSE 15.0 mph 27.6 mph N/A   Clear
11:35 AM 70.3 °F 53.6 °F 55% 29.85 in 10.0 mi South 11.5 mph 21.9 mph N/A   Scattered Clouds
11:55 AM 71.1 °F 53.4 °F 54% 29.85 in 10.0 mi South 13.8 mph 29.9 mph N/A   Mostly Cloudy
12:15 PM 71.8 °F 54.0 °F 53% 29.83 in 10.0 mi South 17.3 mph 28.8 mph N/A   Mostly Cloudy
12:35 PM 72.7 °F 54.9 °F 53% 29.82 in 10.0 mi South 18.4 mph 26.5 mph N/A   Scattered Clouds
12:55 PM 73.4 °F 55.2 °F 53% 29.80 in 10.0 mi South 17.3 mph 28.8 mph N/A   Scattered Clouds
1:15 PM 73.9 °F 55.2 °F 52% 29.78 in 10.0 mi SSE 20.7 mph 32.2 mph N/A   Scattered Clouds
1:35 PM 73.6 °F 55.4 °F 53% 29.77 in 10.0 mi South 18.4 mph 27.6 mph N/A   Scattered Clouds
1:55 PM 74.3 °F 55.4 °F 52% 29.76 in 10.0 mi South 13.8 mph 29.9 mph N/A   Mostly Cloudy
2:15 PM 73.6 °F 54.9 °F 52% 29.75 in 10.0 mi South 20.7 mph 32.2 mph N/A   Mostly Cloudy
2:35 PM 72.9 °F 55.0 °F 53% 29.74 in 10.0 mi South 13.8 mph 32.2 mph N/A   Overcast
2:55 PM 72.5 °F 54.9 °F 54% 29.73 in 10.0 mi South 13.8 mph 31.1 mph N/A   Overcast
3:15 PM 72.5 °F 54.5 °F 53% 29.72 in 10.0 mi South 18.4 mph 32.2 mph N/A   Overcast
3:35 PM 71.8 °F 54.7 °F 55% 29.72 in 10.0 mi South 15.0 mph 28.8 mph N/A   Overcast
3:55 PM 71.6 °F 54.9 °F 55% 29.72 in 10.0 mi South 15.0 mph 31.1 mph N/A   Overcast
4:15 PM 69.1 °F 57.2 °F 66% 29.72 in 10.0 mi South 12.7 mph 27.6 mph N/A Rain Light Rain
4:35 PM 68.0 °F 57.6 °F 69% 29.73 in 10.0 mi South 13.8 mph 25.3 mph N/A Rain Light Rain
4:55 PM 65.3 °F 59.4 °F 81% 29.73 in 10.0 mi South 10.4 mph - N/A Rain Light Rain
5:15 PM 64.0 °F 59.9 °F 86% 29.73 in 10.0 mi South 8.1 mph 16.1 mph N/A Rain Rain
5:35 PM 63.5 °F 60.8 °F 91% 29.73 in 4.0 mi South 8.1 mph 18.4 mph 0.03 in Rain Rain
5:55 PM 61.3 °F 58.5 °F 90% 29.77 in 1.5 mi WSW 12.7 mph 29.9 mph 0.19 in Rain Heavy Rain
6:15 PM 59.4 °F 55.4 °F 87% 29.78 in 10.0 mi West 13.8 mph 31.1 mph N/A Rain Light Rain
6:35 PM 57.4 °F 54.9 °F 91% 29.79 in 4.0 mi WSW 11.5 mph 19.6 mph 0.02 in Rain Rain
6:55 PM 56.1 °F 54.3 °F 94% 29.80 in 7.0 mi WSW 4.6 mph - 0.05 in Rain Light Rain
7:15 PM 54.9 °F 52.9 °F 93% 29.81 in 10.0 mi West 6.9 mph - 0.01 in Rain Light Rain
7:35 PM 54.0 °F 52.3 °F 94% 29.83 in 10.0 mi WSW 8.1 mph - 0.01 in Rain Light Rain
7:55 PM 53.4 °F 51.3 °F 92% 29.83 in 10.0 mi West 5.8 mph - 0.01 in   Overcast
8:15 PM 52.9 °F 50.9 °F 93% 29.85 in 10.0 mi WSW 5.8 mph - N/A   Overcast
8:35 PM 52.7 °F 50.5 °F 92% 29.84 in 10.0 mi West 4.6 mph - N/A   Mostly Cloudy
8:55 PM 52.2 °F 50.4 °F 94% 29.85 in 10.0 mi WSW 3.5 mph - N/A   Mostly Cloudy
9:15 PM 52.0 °F 50.0 °F 93% 29.85 in 10.0 mi WSW 4.6 mph - 0.01 in   Overcast
9:35 PM 51.8 °F 49.6 °F 92% 29.86 in 10.0 mi WSW 4.6 mph - 0.01 in   Mostly Cloudy
9:55 PM 51.8 °F 50.0 °F 94% 29.86 in 10.0 mi WSW 5.8 mph - 0.01 in   Overcast
10:15 PM 52.2 °F 49.3 °F 90% 29.87 in 10.0 mi West 8.1 mph 16.1 mph N/A   Overcast
10:35 PM 51.8 °F 49.1 °F 90% 29.87 in 10.0 mi WSW 8.1 mph - N/A   Overcast
10:55 PM 51.1 °F 48.7 °F 92% 29.87 in 10.0 mi West 6.9 mph - N/A   Scattered Clouds
11:15 PM 50.4 °F 48.2 °F 92% 29.88 in 10.0 mi West 3.5 mph - N/A   Clear
11:35 PM 50.5 °F 48.6 °F 93% 29.89 in 10.0 mi West 5.8 mph - N/A   Mostly Cloudy
11:55 PM 51.1 °F 48.7 °F 92% 29.89 in 10.0 mi West 5.8 mph - N/A   Overcast